{"data":{"norad_id":65196,"intl_designator":"2025-175Y","name":"STARLINK-34927","alt_names":[],"object_type":"PAYLOAD","status":"ACTIVE","operator":null,"country":"US","launch_date":"2025-08-14","launch_site_code":"AFWTR","launch_vehicle":null,"mission":null,"orbit_class":"UNKNOWN","rcs_meters":null,"size_class":null,"mass_kg":null,"dimensions":null,"purposes":["comms"],"wikipedia_slug":null,"has_3d_model":false,"image_url":null,"decayed_at":null,"tle_current":{"epoch":"2026-05-25T02:46:07.391712Z","epoch_age_seconds":58912,"freshness":"FRESH","line1":"1 65196U 25175Y   26145.11536333  .00014333  00000+0  99556-3 0  9990","line2":"2 65196  97.4544  17.6657 0002905  84.3470 275.8088 15.05641999 44146","mean_motion":15.05641999,"eccentricity":0.0002905,"inclination_deg":97.4544,"raan_deg":17.6657,"arg_perigee_deg":84.347,"mean_anomaly_deg":275.8088,"bstar":0.00099556,"rev_number":4414,"period_min":95.640265146456,"perigee_km":547.52320750375,"apogee_km":551.54818534037,"semimajor_km":6927.6726964221,"source":"CELESTRAK","updated_at":"2026-05-25T13:38:20.716926Z"}}}